Time,TemperatureF,DewpointF,PressureIn,WindDirection,WindDirectionDegrees,WindSpeedMPH,WindSpeedGustMPH,Humidity,HourlyPrecipIn,Conditions,Clouds,dailyrainin,SolarRadiationWatts/m^2,SoftwareType,DateUTC
2013-01-13 00:04:00,32.5,25.8,30.21,NW,309,0.0,0.0,76,0.00,,,0.00,0,WeatherTracker,2013-01-13 08:04:00,
2013-01-13 00:09:00,32.2,25.5,30.21,NW,309,0.0,0.0,76,0.00,,,0.00,0,WeatherTracker,2013-01-13 08:09:00,
2013-01-13 00:14:00,32.0,25.3,30.21,NW,309,0.0,0.0,76,0.00,,,0.00,0,WeatherTracker,2013-01-13 08:14:00,
2013-01-13 00:19:00,31.8,25.4,30.21,NW,308,0.0,0.0,77,0.00,,,0.00,0,WeatherTracker,2013-01-13 08:19:00,
2013-01-13 00:25:00,31.7,25.3,30.21,NW,308,0.0,0.0,77,0.00,,,0.00,0,WeatherTracker,2013-01-13 08:25:00,
2013-01-13 00:30:00,31.6,25.5,30.21,NW,308,0.0,0.0,78,0.00,,,0.00,0,WeatherTracker,2013-01-13 08:30:00,
2013-01-13 00:35:00,31.5,25.4,30.21,NW,308,0.0,0.0,78,0.00,,,0.00,0,WeatherTracker,2013-01-13 08:35:00,
2013-01-13 00:40:00,31.4,25.7,30.21,NW,308,0.0,0.0,79,0.00,,,0.00,0,WeatherTracker,2013-01-13 08:40:00,
2013-01-13 00:45:00,31.2,25.2,30.21,NW,308,0.0,0.0,78,0.00,,,0.00,0,WeatherTracker,2013-01-13 08:45:00,
2013-01-13 00:50:00,31.1,25.4,30.21,NW,308,0.0,0.0,79,0.00,,,0.00,0,WeatherTracker,2013-01-13 08:50:00,
2013-01-13 00:55:00,31.1,25.1,30.21,NW,309,0.0,0.0,78,0.00,,,0.00,0,WeatherTracker,2013-01-13 08:55:00,
2013-01-13 01:00:00,31.2,24.8,30.22,NW,306,0.0,0.0,77,0.00,,,0.00,0,WeatherTracker,2013-01-13 09:00:00,
2013-01-13 01:05:00,31.5,24.8,30.21,WNW,303,0.0,0.0,76,0.00,,,0.00,0,WeatherTracker,2013-01-13 09:05:00,
2013-01-13 01:10:00,31.8,24.5,30.22,NNW,331,0.0,1.0,74,0.00,,,0.00,0,WeatherTracker,2013-01-13 09:10:00,
2013-01-13 01:15:00,32.1,24.4,30.22,NW,321,0.0,1.0,73,0.00,,,0.00,0,WeatherTracker,2013-01-13 09:15:00,
2013-01-13 01:20:00,32.4,24.4,30.22,WNW,299,0.0,1.0,72,0.00,,,0.00,0,WeatherTracker,2013-01-13 09:20:00,
2013-01-13 01:25:00,32.6,24.3,30.22,NW,309,0.0,4.0,71,0.00,,,0.00,0,WeatherTracker,2013-01-13 09:25:00,
2013-01-13 01:30:00,32.7,23.7,30.22,NNW,329,5.0,5.0,69,0.00,,,0.00,0,WeatherTracker,2013-01-13 09:30:00,
2013-01-13 01:35:00,32.9,23.9,30.22,NW,320,0.0,7.0,69,0.00,,,0.00,0,WeatherTracker,2013-01-13 09:35:00,
2013-01-13 01:40:00,33.1,23.7,30.22,NNW,333,0.0,7.0,68,0.00,,,0.00,0,WeatherTracker,2013-01-13 09:40:00,
2013-01-13 01:45:00,33.2,23.8,30.22,NNW,328,7.0,9.0,68,0.00,,,0.00,0,WeatherTracker,2013-01-13 09:45:00,
2013-01-13 01:50:00,33.3,23.5,30.23,NW,317,0.0,9.0,67,0.00,,,0.00,0,WeatherTracker,2013-01-13 09:50:00,
2013-01-13 01:55:00,33.3,23.5,30.23,NW,317,0.0,8.0,67,0.00,,,0.00,0,WeatherTracker,2013-01-13 09:55:00,
2013-01-13 02:00:00,33.3,23.9,30.23,NW,321,0.0,1.0,68,0.00,,,0.00,0,WeatherTracker,2013-01-13 10:00:00,
2013-01-13 02:05:00,33.1,23.7,30.23,NW,321,0.0,1.0,68,0.00,,,0.00,0,WeatherTracker,2013-01-13 10:05:00,
2013-01-13 02:10:00,33.0,23.6,30.23,NW,321,0.0,1.0,68,0.00,,,0.00,0,WeatherTracker,2013-01-13 10:10:00,
2013-01-13 02:16:00,32.8,23.8,30.23,NW,323,0.0,1.0,69,0.00,,,0.00,0,WeatherTracker,2013-01-13 10:16:00,
2013-01-13 02:21:00,32.6,23.6,30.22,NW,323,0.0,1.0,69,0.00,,,0.00,0,WeatherTracker,2013-01-13 10:21:00,
2013-01-13 02:26:00,32.5,23.8,30.23,NW,325,0.0,1.0,70,0.00,,,0.00,0,WeatherTracker,2013-01-13 10:26:00,
2013-01-13 02:31:00,32.3,23.6,30.23,NW,324,0.0,1.0,70,0.00,,,0.00,0,WeatherTracker,2013-01-13 10:31:00,
2013-01-13 02:36:00,32.1,23.4,30.23,NW,320,0.0,1.0,70,0.00,,,0.00,0,WeatherTracker,2013-01-13 10:36:00,
2013-01-13 02:41:00,31.8,23.5,30.23,NW,320,0.0,0.0,71,0.00,,,0.00,0,WeatherTracker,2013-01-13 10:41:00,
2013-01-13 02:46:00,31.6,23.6,30.23,NW,320,0.0,0.0,72,0.00,,,0.00,0,WeatherTracker,2013-01-13 10:46:00,
2013-01-13 02:51:00,31.3,23.3,30.23,NW,320,0.0,0.0,72,0.00,,,0.00,0,WeatherTracker,2013-01-13 10:51:00,
2013-01-13 02:56:00,31.1,23.5,30.23,NW,320,0.0,0.0,73,0.00,,,0.00,0,WeatherTracker,2013-01-13 10:56:00,
2013-01-13 03:01:00,30.7,23.1,30.23,NW,320,0.0,0.0,73,0.00,,,0.00,0,WeatherTracker,2013-01-13 11:01:00,
2013-01-13 03:06:00,30.4,23.1,30.23,NW,309,0.0,0.0,74,0.00,,,0.00,0,WeatherTracker,2013-01-13 11:06:00,
2013-01-13 03:11:00,30.3,22.7,30.23,NW,309,0.0,0.0,73,0.00,,,0.00,0,WeatherTracker,2013-01-13 11:11:00,
2013-01-13 03:16:00,30.4,22.8,30.23,WNW,300,0.0,6.0,73,0.00,,,0.00,0,WeatherTracker,2013-01-13 11:16:00,
2013-01-13 03:21:00,30.6,22.7,30.23,NW,308,1.0,6.0,72,0.00,,,0.00,0,WeatherTracker,2013-01-13 11:21:00,
2013-01-13 03:26:00,30.9,22.6,30.23,NW,311,3.0,6.0,71,0.00,,,0.00,0,WeatherTracker,2013-01-13 11:26:00,
2013-01-13 03:31:00,31.1,22.5,30.23,WNW,295,0.0,6.0,70,0.00,,,0.00,0,WeatherTracker,2013-01-13 11:31:00,
2013-01-13 03:37:00,31.3,22.7,30.23,NW,313,0.0,6.0,70,0.00,,,0.00,0,WeatherTracker,2013-01-13 11:37:00,
2013-01-13 03:42:00,31.4,22.8,30.23,WNW,292,0.0,7.0,70,0.00,,,0.00,0,WeatherTracker,2013-01-13 11:42:00,
2013-01-13 03:47:00,31.6,23.0,30.22,WNW,294,4.0,9.0,70,0.00,,,0.00,0,WeatherTracker,2013-01-13 11:47:00,
2013-01-13 03:52:00,31.8,23.1,30.22,NW,310,5.0,10.0,70,0.00,,,0.00,0,WeatherTracker,2013-01-13 11:52:00,
2013-01-13 03:57:00,31.9,23.2,30.22,NW,323,2.0,10.0,70,0.00,,,0.00,0,WeatherTracker,2013-01-13 11:57:00,
2013-01-13 04:02:00,32.0,23.3,30.22,NW,314,0.0,9.0,70,0.00,,,0.00,0,WeatherTracker,2013-01-13 12:02:00,
2013-01-13 04:07:00,32.0,23.3,30.21,NW,306,0.0,9.0,70,0.00,,,0.00,0,WeatherTracker,2013-01-13 12:07:00,
2013-01-13 04:12:00,32.0,23.0,30.22,NW,321,0.0,7.0,69,0.00,,,0.00,0,WeatherTracker,2013-01-13 12:12:00,
2013-01-13 04:17:00,32.0,23.0,30.22,NW,312,0.0,8.0,69,0.00,,,0.00,0,WeatherTracker,2013-01-13 12:17:00,
2013-01-13 04:22:00,32.0,23.0,30.22,NW,315,0.0,8.0,69,0.00,,,0.00,0,WeatherTracker,2013-01-13 12:22:00,
2013-01-13 04:27:00,31.8,22.8,30.22,NW,323,0.0,1.0,69,0.00,,,0.00,0,WeatherTracker,2013-01-13 12:27:00,
2013-01-13 04:32:00,31.7,22.7,30.22,NW,325,0.0,8.0,69,0.00,,,0.00,0,WeatherTracker,2013-01-13 12:32:00,
2013-01-13 04:37:00,31.6,23.0,30.23,NW,323,0.0,8.0,70,0.00,,,0.00,0,WeatherTracker,2013-01-13 12:37:00,
2013-01-13 04:42:00,31.4,22.8,30.23,NNW,327,0.0,1.0,70,0.00,,,0.00,0,WeatherTracker,2013-01-13 12:42:00,
2013-01-13 04:47:00,31.2,22.9,30.23,NW,325,0.0,1.0,71,0.00,,,0.00,0,WeatherTracker,2013-01-13 12:47:00,
2013-01-13 04:53:00,31.1,22.8,30.23,NW,325,0.0,1.0,71,0.00,,,0.00,0,WeatherTracker,2013-01-13 12:53:00,
2013-01-13 04:58:00,30.9,23.0,30.23,NW,324,0.0,1.0,72,0.00,,,0.00,0,WeatherTracker,2013-01-13 12:58:00,
2013-01-13 05:03:00,30.8,22.9,30.23,NW,310,0.0,0.0,72,0.00,,,0.00,0,WeatherTracker,2013-01-13 13:03:00,
2013-01-13 05:08:00,30.8,22.9,30.24,NW,309,0.0,0.0,72,0.00,,,0.00,0,WeatherTracker,2013-01-13 13:08:00,
2013-01-13 05:13:00,30.7,22.8,30.24,NW,318,0.0,0.0,72,0.00,,,0.00,0,WeatherTracker,2013-01-13 13:13:00,
2013-01-13 05:18:00,30.6,22.7,30.23,NW,319,0.0,1.0,72,0.00,,,0.00,0,WeatherTracker,2013-01-13 13:18:00,
2013-01-13 05:23:00,30.5,22.6,30.23,NW,319,0.0,1.0,72,0.00,,,0.00,0,WeatherTracker,2013-01-13 13:23:00,
2013-01-13 05:28:00,30.4,22.8,30.23,NW,319,0.0,1.0,73,0.00,,,0.00,0,WeatherTracker,2013-01-13 13:28:00,
2013-01-13 05:33:00,30.2,22.6,30.23,NW,319,0.0,1.0,73,0.00,,,0.00,0,WeatherTracker,2013-01-13 13:33:00,
2013-01-13 05:38:00,29.8,22.5,30.23,NW,319,0.0,0.0,74,0.00,,,0.00,0,WeatherTracker,2013-01-13 13:38:00,
2013-01-13 05:43:00,29.6,22.7,30.24,NW,319,0.0,0.0,75,0.00,,,0.00,0,WeatherTracker,2013-01-13 13:43:00,
2013-01-13 05:48:00,29.4,22.8,30.24,NW,319,0.0,0.0,76,0.00,,,0.00,0,WeatherTracker,2013-01-13 13:48:00,
2013-01-13 05:53:00,29.2,22.6,30.24,NW,319,0.0,0.0,76,0.00,,,0.00,0,WeatherTracker,2013-01-13 13:53:00,
2013-01-13 05:58:00,28.9,22.3,30.24,NW,319,0.0,0.0,76,0.00,,,0.00,0,WeatherTracker,2013-01-13 13:58:00,
2013-01-13 06:03:00,28.5,22.2,30.24,NNW,329,0.0,0.0,77,0.00,,,0.00,0,WeatherTracker,2013-01-13 14:03:00,
2013-01-13 06:08:00,28.3,22.0,30.24,NNW,329,0.0,0.0,77,0.00,,,0.00,0,WeatherTracker,2013-01-13 14:08:00,
2013-01-13 06:13:00,28.1,22.1,30.25,NNW,329,0.0,0.0,78,0.00,,,0.00,0,WeatherTracker,2013-01-13 14:13:00,
2013-01-13 06:18:00,27.9,21.9,30.25,NNW,329,0.0,0.0,78,0.00,,,0.00,0,WeatherTracker,2013-01-13 14:18:00,
2013-01-13 06:23:00,27.8,22.2,30.25,NNW,329,0.0,0.0,79,0.00,,,0.00,0,WeatherTracker,2013-01-13 14:23:00,
2013-01-13 06:28:00,27.6,22.0,30.25,NNW,329,0.0,0.0,79,0.00,,,0.00,0,WeatherTracker,2013-01-13 14:28:00,
2013-01-13 06:33:00,27.4,21.8,30.26,NNW,329,0.0,0.0,79,0.00,,,0.00,0,WeatherTracker,2013-01-13 14:33:00,
2013-01-13 06:38:00,27.3,22.0,30.26,NNW,329,0.0,0.0,80,0.00,,,0.00,0,WeatherTracker,2013-01-13 14:38:00,
2013-01-13 06:43:00,27.3,22.3,30.26,NNW,329,0.0,0.0,81,0.00,,,0.00,0,WeatherTracker,2013-01-13 14:43:00,
2013-01-13 06:48:00,27.2,22.2,30.26,NNW,329,0.0,0.0,81,0.00,,,0.00,0,WeatherTracker,2013-01-13 14:48:00,
2013-01-13 06:54:00,27.1,22.1,30.25,NNW,329,0.0,0.0,81,0.00,,,0.00,0,WeatherTracker,2013-01-13 14:54:00,
2013-01-13 06:59:00,26.9,21.9,30.25,NNW,329,0.0,0.0,81,0.00,,,0.00,0,WeatherTracker,2013-01-13 14:59:00,
2013-01-13 07:04:00,26.8,21.8,30.25,NNW,329,0.0,0.0,81,0.00,,,0.00,0,WeatherTracker,2013-01-13 15:04:00,
2013-01-13 07:09:00,26.7,22.0,30.26,NNW,329,0.0,0.0,82,0.00,,,0.00,0,WeatherTracker,2013-01-13 15:09:00,
2013-01-13 07:14:00,26.8,22.1,30.26,NNW,329,0.0,0.0,82,0.00,,,0.00,0,WeatherTracker,2013-01-13 15:14:00,
2013-01-13 07:19:00,26.9,22.2,30.26,NNW,329,0.0,0.0,82,0.00,,,0.00,0,WeatherTracker,2013-01-13 15:19:00,
2013-01-13 07:24:00,27.0,22.0,30.26,NNW,329,0.0,0.0,81,0.00,,,0.00,5,WeatherTracker,2013-01-13 15:24:00,
2013-01-13 07:29:00,27.1,21.8,30.26,NNW,329,0.0,0.0,80,0.00,,,0.00,7,WeatherTracker,2013-01-13 15:29:00,
2013-01-13 07:34:00,27.1,21.8,30.26,NNW,329,0.0,0.0,80,0.00,,,0.00,11,WeatherTracker,2013-01-13 15:34:00,
2013-01-13 07:39:00,27.1,21.8,30.27,NNW,329,0.0,0.0,80,0.00,,,0.00,12,WeatherTracker,2013-01-13 15:39:00,
2013-01-13 07:44:00,27.0,21.7,30.26,NNW,329,0.0,0.0,80,0.00,,,0.00,14,WeatherTracker,2013-01-13 15:44:00,
2013-01-13 07:49:00,27.1,21.8,30.27,NNW,329,0.0,0.0,80,0.00,,,0.00,18,WeatherTracker,2013-01-13 15:49:00,
2013-01-13 07:54:00,27.1,21.8,30.27,NNW,329,0.0,0.0,80,0.00,,,0.00,28,WeatherTracker,2013-01-13 15:54:00,
2013-01-13 07:59:00,27.5,22.2,30.27,NNW,329,0.0,0.0,80,0.00,,,0.00,40,WeatherTracker,2013-01-13 15:59:00,
2013-01-13 08:04:00,28.2,22.5,30.28,NNW,329,0.0,0.0,79,0.00,,,0.00,37,WeatherTracker,2013-01-13 16:04:00,
2013-01-13 08:09:00,28.9,22.9,30.28,NNW,328,0.0,0.0,78,0.00,,,0.00,26,WeatherTracker,2013-01-13 16:09:00,
2013-01-13 08:14:00,29.4,23.1,30.28,NW,319,0.0,0.0,77,0.00,,,0.00,26,WeatherTracker,2013-01-13 16:14:00,
2013-01-13 08:19:00,29.8,22.9,30.28,NW,319,0.0,1.0,75,0.00,,,0.00,30,WeatherTracker,2013-01-13 16:19:00,
2013-01-13 08:24:00,30.1,23.2,30.27,NNW,342,0.0,1.0,75,0.00,,,0.00,33,WeatherTracker,2013-01-13 16:24:00,
2013-01-13 08:29:00,30.6,23.3,30.27,NNW,344,0.0,1.0,74,0.00,,,0.00,51,WeatherTracker,2013-01-13 16:29:00,
2013-01-13 08:34:00,31.1,23.5,30.27,NW,313,1.0,2.0,73,0.00,,,0.00,65,WeatherTracker,2013-01-13 16:34:00,
2013-01-13 08:39:00,31.8,23.8,30.28,NW,312,1.0,3.0,72,0.00,,,0.00,83,WeatherTracker,2013-01-13 16:39:00,
2013-01-13 08:45:00,32.6,24.3,30.28,NW,321,0.0,3.0,71,0.00,,,0.00,135,WeatherTracker,2013-01-13 16:45:00,
2013-01-13 08:50:00,33.5,24.4,30.28,WNW,289,0.0,3.0,69,0.00,,,0.00,227,WeatherTracker,2013-01-13 16:50:00,
2013-01-13 08:55:00,34.9,25.1,30.28,WNW,298,0.0,3.0,67,0.00,,,0.00,225,WeatherTracker,2013-01-13 16:55:00,
2013-01-13 09:00:00,36.1,25.5,30.28,NW,304,0.0,3.0,65,0.00,,,0.00,236,WeatherTracker,2013-01-13 17:00:00,
2013-01-13 09:05:00,36.9,25.5,30.28,WNW,303,1.0,3.0,63,0.00,,,0.00,213,WeatherTracker,2013-01-13 17:05:00,
2013-01-13 09:10:00,37.3,25.5,30.28,NNW,332,8.0,10.0,62,0.00,,,0.00,250,WeatherTracker,2013-01-13 17:10:00,
2013-01-13 09:15:00,37.4,25.2,30.28,NNW,338,0.0,13.0,61,0.00,,,0.00,272,WeatherTracker,2013-01-13 17:15:00,
2013-01-13 09:20:00,37.7,25.5,30.28,NNW,332,8.0,13.0,61,0.00,,,0.00,287,WeatherTracker,2013-01-13 17:20:00,
2013-01-13 09:25:00,38.2,25.6,30.28,NW,312,0.0,11.0,60,0.00,,,0.00,285,WeatherTracker,2013-01-13 17:25:00,
2013-01-13 09:30:00,38.3,25.2,30.28,NW,321,1.0,11.0,59,0.00,,,0.00,271,WeatherTracker,2013-01-13 17:30:00,
2013-01-13 09:35:00,38.2,25.2,30.28,NNW,332,11.0,11.0,59,0.00,,,0.00,295,WeatherTracker,2013-01-13 17:35:00,
2013-01-13 09:40:00,38.3,24.8,30.27,NNW,336,8.0,12.0,58,0.00,,,0.00,262,WeatherTracker,2013-01-13 17:40:00,
2013-01-13 09:45:00,38.5,25.0,30.28,WNW,302,9.0,14.0,58,0.00,,,0.00,262,WeatherTracker,2013-01-13 17:45:00,
2013-01-13 09:50:00,38.6,25.5,30.28,NNW,337,9.0,14.0,59,0.00,,,0.00,327,WeatherTracker,2013-01-13 17:50:00,
2013-01-13 09:56:00,39.1,26.0,30.28,NW,314,7.0,13.0,59,0.00,,,0.00,323,WeatherTracker,2013-01-13 17:56:00,
2013-01-13 10:01:00,39.5,26.0,30.28,NNW,327,2.0,12.0,58,0.00,,,0.00,364,WeatherTracker,2013-01-13 18:01:00,
2013-01-13 10:06:00,39.7,26.1,30.28,North,350,1.0,12.0,58,0.00,,,0.00,350,WeatherTracker,2013-01-13 18:06:00,
2013-01-13 10:11:00,40.1,25.7,30.28,NNW,331,6.0,11.0,56,0.00,,,0.00,383,WeatherTracker,2013-01-13 18:11:00,
2013-01-13 10:16:00,40.5,25.2,30.28,NW,322,8.0,12.0,54,0.00,,,0.00,348,WeatherTracker,2013-01-13 18:16:00,
2013-01-13 10:21:00,40.6,24.8,30.28,North,349,9.0,12.0,53,0.00,,,0.00,364,WeatherTracker,2013-01-13 18:21:00,
2013-01-13 10:26:00,40.5,24.7,30.28,NNW,344,5.0,11.0,53,0.00,,,0.00,381,WeatherTracker,2013-01-13 18:26:00,
2013-01-13 10:31:00,40.7,24.9,30.28,NNW,343,8.0,11.0,53,0.00,,,0.00,392,WeatherTracker,2013-01-13 18:31:00,
2013-01-13 10:36:00,40.9,25.1,30.28,WNW,302,8.0,12.0,53,0.00,,,0.00,371,WeatherTracker,2013-01-13 18:36:00,
2013-01-13 10:41:00,41.1,25.3,30.28,NNW,335,0.0,12.0,53,0.00,,,0.00,390,WeatherTracker,2013-01-13 18:41:00,
2013-01-13 10:46:00,41.4,25.6,30.28,NW,325,9.0,10.0,53,0.00,,,0.00,415,WeatherTracker,2013-01-13 18:46:00,
2013-01-13 10:51:00,41.5,26.1,30.28,NW,323,10.0,12.0,54,0.00,,,0.00,475,WeatherTracker,2013-01-13 18:51:00,
2013-01-13 10:56:00,41.8,26.8,30.27,NNW,340,1.0,12.0,55,0.00,,,0.00,371,WeatherTracker,2013-01-13 18:56:00,
2013-01-13 11:01:00,41.9,26.0,30.27,NW,313,5.0,11.0,53,0.00,,,0.00,462,WeatherTracker,2013-01-13 19:01:00,
2013-01-13 11:06:00,41.9,26.5,30.27,NNW,334,9.0,11.0,54,0.00,,,0.00,475,WeatherTracker,2013-01-13 19:06:00,
2013-01-13 11:11:00,42.2,26.3,30.27,NNW,339,0.0,13.0,53,0.00,,,0.00,464,WeatherTracker,2013-01-13 19:11:00,
2013-01-13 11:16:00,42.7,27.2,30.26,NW,326,8.0,13.0,54,0.00,,,0.00,473,WeatherTracker,2013-01-13 19:16:00,
2013-01-13 11:21:00,43.0,26.1,30.26,NW,304,0.0,12.0,51,0.00,,,0.00,434,WeatherTracker,2013-01-13 19:21:00,
2013-01-13 11:26:00,42.9,25.1,30.26,WNW,286,9.0,12.0,49,0.00,,,0.00,504,WeatherTracker,2013-01-13 19:26:00,
2013-01-13 11:31:00,42.9,24.6,30.26,WNW,283,0.0,13.0,48,0.00,,,0.00,508,WeatherTracker,2013-01-13 19:31:00,
2013-01-13 11:36:00,43.1,25.7,30.25,NNW,333,1.0,13.0,50,0.00,,,0.00,496,WeatherTracker,2013-01-13 19:36:00,
2013-01-13 11:41:00,43.6,25.7,30.25,NW,319,0.0,9.0,49,0.00,,,0.00,492,WeatherTracker,2013-01-13 19:41:00,
2013-01-13 11:46:00,43.7,25.8,30.24,WNW,289,1.0,11.0,49,0.00,,,0.00,494,WeatherTracker,2013-01-13 19:46:00,
2013-01-13 11:51:00,43.7,26.3,30.24,NW,304,0.0,11.0,50,0.00,,,0.00,483,WeatherTracker,2013-01-13 19:51:00,
2013-01-13 11:56:00,44.1,25.7,30.24,NNW,329,1.0,10.0,48,0.00,,,0.00,531,WeatherTracker,2013-01-13 19:56:00,
2013-01-13 12:01:00,44.4,25.4,30.23,NW,315,6.0,11.0,47,0.00,,,0.00,385,WeatherTracker,2013-01-13 20:01:00,
2013-01-13 12:07:00,44.5,25.5,30.23,WNW,302,0.0,12.0,47,0.00,,,0.00,385,WeatherTracker,2013-01-13 20:07:00,
2013-01-13 12:12:00,44.5,25.5,30.23,NW,311,9.0,12.0,47,0.00,,,0.00,355,WeatherTracker,2013-01-13 20:12:00,
2013-01-13 12:17:00,44.2,25.3,30.23,NW,313,1.0,14.0,47,0.00,,,0.00,355,WeatherTracker,2013-01-13 20:17:00,
2013-01-13 12:22:00,44.0,25.6,30.22,NW,323,0.0,14.0,48,0.00,,,0.00,373,WeatherTracker,2013-01-13 20:22:00,
2013-01-13 12:27:00,44.4,26.4,30.22,NNW,333,4.0,14.0,49,0.00,,,0.00,439,WeatherTracker,2013-01-13 20:27:00,
2013-01-13 12:32:00,44.8,26.3,30.22,NW,307,1.0,12.0,48,0.00,,,0.00,512,WeatherTracker,2013-01-13 20:32:00,
2013-01-13 12:37:00,45.1,26.6,30.22,WNW,303,9.0,12.0,48,0.00,,,0.00,475,WeatherTracker,2013-01-13 20:37:00,
2013-01-13 12:42:00,45.2,26.7,30.22,NNW,329,0.0,12.0,48,0.00,,,0.00,478,WeatherTracker,2013-01-13 20:42:00,
2013-01-13 12:47:00,45.6,27.6,30.22,NNW,341,3.0,12.0,49,0.00,,,0.00,413,WeatherTracker,2013-01-13 20:47:00,
2013-01-13 12:52:00,46.1,27.5,30.22,WNW,294,11.0,12.0,48,0.00,,,0.00,487,WeatherTracker,2013-01-13 20:52:00,
2013-01-13 12:57:00,46.1,27.5,30.22,West,271,2.0,15.0,48,0.00,,,0.00,459,WeatherTracker,2013-01-13 20:57:00,
2013-01-13 13:02:00,46.6,26.9,30.21,NW,321,0.0,15.0,46,0.00,,,0.00,439,WeatherTracker,2013-01-13 21:02:00,
2013-01-13 13:07:00,46.8,26.6,30.21,NNW,341,11.0,11.0,45,0.00,,,0.00,330,WeatherTracker,2013-01-13 21:07:00,
2013-01-13 13:12:00,46.8,25.5,30.22,NNW,329,1.0,12.0,43,0.00,,,0.00,497,WeatherTracker,2013-01-13 21:12:00,
2013-01-13 13:17:00,46.9,26.1,30.22,NW,326,1.0,13.0,44,0.00,,,0.00,408,WeatherTracker,2013-01-13 21:17:00,
2013-01-13 13:22:00,47.0,25.7,30.21,WNW,290,9.0,13.0,43,0.00,,,0.00,394,WeatherTracker,2013-01-13 21:22:00,
2013-01-13 13:27:00,47.1,25.8,30.21,North,360,8.0,14.0,43,0.00,,,0.00,438,WeatherTracker,2013-01-13 21:27:00,
2013-01-13 13:32:00,47.3,24.8,30.21,NW,319,13.0,14.0,41,0.00,,,0.00,478,WeatherTracker,2013-01-13 21:32:00,
2013-01-13 13:37:00,47.1,24.6,30.21,WNW,286,7.0,15.0,41,0.00,,,0.00,348,WeatherTracker,2013-01-13 21:37:00,
2013-01-13 13:43:00,47.0,25.1,30.21,NNW,347,9.0,15.0,42,0.00,,,0.00,348,WeatherTracker,2013-01-13 21:43:00,
2013-01-13 13:48:00,47.1,25.2,30.21,NW,310,7.0,12.0,42,0.00,,,0.00,385,WeatherTracker,2013-01-13 21:48:00,
2013-01-13 13:53:00,47.3,25.4,30.21,NW,305,5.0,12.0,42,0.00,,,0.00,499,WeatherTracker,2013-01-13 21:53:00,
2013-01-13 13:58:00,47.5,25.6,30.21,NNW,329,7.0,12.0,42,0.00,,,0.00,494,WeatherTracker,2013-01-13 21:58:00,
2013-01-13 14:03:00,47.5,26.1,30.21,NNW,327,10.0,16.0,43,0.00,,,0.00,376,WeatherTracker,2013-01-13 22:03:00,
2013-01-13 14:08:00,47.4,26.0,30.21,NNW,337,6.0,16.0,43,0.00,,,0.00,424,WeatherTracker,2013-01-13 22:08:00,
2013-01-13 14:13:00,47.4,26.0,30.21,NW,317,4.0,15.0,43,0.00,,,0.00,457,WeatherTracker,2013-01-13 22:13:00,
2013-01-13 14:18:00,47.5,26.1,30.20,NW,323,5.0,15.0,43,0.00,,,0.00,438,WeatherTracker,2013-01-13 22:18:00,
2013-01-13 14:23:00,47.7,26.9,30.20,NW,314,12.0,13.0,44,0.00,,,0.00,427,WeatherTracker,2013-01-13 22:23:00,
2013-01-13 14:28:00,48.0,26.6,30.20,NW,314,1.0,13.0,43,0.00,,,0.00,417,WeatherTracker,2013-01-13 22:28:00,
2013-01-13 14:33:00,48.0,26.0,30.20,North,355,6.0,12.0,42,0.00,,,0.00,408,WeatherTracker,2013-01-13 22:33:00,
2013-01-13 14:38:00,48.1,26.7,30.20,WNW,298,6.0,13.0,43,0.00,,,0.00,397,WeatherTracker,2013-01-13 22:38:00,
2013-01-13 14:43:00,48.3,26.9,30.20,NW,305,3.0,13.0,43,0.00,,,0.00,385,WeatherTracker,2013-01-13 22:43:00,
2013-01-13 14:48:00,48.5,25.9,30.20,NNW,331,10.0,11.0,41,0.00,,,0.00,373,WeatherTracker,2013-01-13 22:48:00,
2013-01-13 14:53:00,48.1,24.9,30.20,NW,321,6.0,17.0,40,0.00,,,0.00,360,WeatherTracker,2013-01-13 22:53:00,
2013-01-13 14:58:00,47.9,25.9,30.20,NW,322,9.0,17.0,42,0.00,,,0.00,352,WeatherTracker,2013-01-13 22:58:00,
2013-01-13 15:04:00,47.9,25.9,30.20,NNW,346,11.0,18.0,42,0.00,,,0.00,338,WeatherTracker,2013-01-13 23:04:00,
2013-01-13 15:09:00,47.9,26.5,30.20,NNW,336,10.0,18.0,43,0.00,,,0.00,325,WeatherTracker,2013-01-13 23:09:00,
2013-01-13 15:14:00,47.9,26.5,30.20,NNW,341,10.0,16.0,43,0.00,,,0.00,309,WeatherTracker,2013-01-13 23:14:00,
2013-01-13 15:19:00,47.8,25.8,30.20,NW,321,11.0,14.0,42,0.00,,,0.00,294,WeatherTracker,2013-01-13 23:19:00,
2013-01-13 15:24:00,47.5,26.1,30.20,NNW,335,1.0,15.0,43,0.00,,,0.00,278,WeatherTracker,2013-01-13 23:24:00,
2013-01-13 15:29:00,47.1,26.3,30.20,NNW,340,13.0,15.0,44,0.00,,,0.00,262,WeatherTracker,2013-01-13 23:29:00,
2013-01-13 15:34:00,46.8,27.1,30.20,NW,308,0.0,15.0,46,0.00,,,0.00,243,WeatherTracker,2013-01-13 23:34:00,
2013-01-13 15:39:00,46.5,27.4,30.19,NNW,343,8.0,15.0,47,0.00,,,0.00,225,WeatherTracker,2013-01-13 23:39:00,
2013-01-13 15:44:00,46.4,27.3,30.19,NNW,342,7.0,18.0,47,0.00,,,0.00,206,WeatherTracker,2013-01-13 23:44:00,
2013-01-13 15:49:00,46.2,27.1,30.19,NW,323,8.0,18.0,47,0.00,,,0.00,186,WeatherTracker,2013-01-13 23:49:00,
2013-01-13 15:54:00,46.1,26.0,30.19,NNW,334,11.0,14.0,45,0.00,,,0.00,142,WeatherTracker,2013-01-13 23:54:00,
2013-01-13 15:59:00,46.0,26.4,30.19,NW,304,0.0,16.0,46,0.00,,,0.00,65,WeatherTracker,2013-01-13 23:59:00,
2013-01-13 16:04:00,45.8,25.7,30.19,WNW,298,0.0,16.0,45,0.00,,,0.00,37,WeatherTracker,2013-01-14 00:04:00,
2013-01-13 16:09:00,45.7,25.6,30.19,WNW,288,1.0,11.0,45,0.00,,,0.00,25,WeatherTracker,2013-01-14 00:09:00,
2013-01-13 16:14:00,45.7,25.0,30.19,NW,309,0.0,11.0,44,0.00,,,0.00,25,WeatherTracker,2013-01-14 00:14:00,
2013-01-13 16:19:00,45.7,25.0,30.19,NW,306,5.0,10.0,44,0.00,,,0.00,23,WeatherTracker,2013-01-14 00:19:00,
2013-01-13 16:24:00,45.6,25.0,30.19,NW,317,1.0,10.0,44,0.00,,,0.00,21,WeatherTracker,2013-01-14 00:24:00,
2013-01-13 16:29:00,45.5,24.3,30.19,NNW,327,0.0,11.0,43,0.00,,,0.00,21,WeatherTracker,2013-01-14 00:29:00,
2013-01-13 16:34:00,45.3,24.7,30.19,NNW,329,3.0,13.0,44,0.00,,,0.00,19,WeatherTracker,2013-01-14 00:34:00,
2013-01-13 16:39:00,45.1,25.0,30.19,NW,318,0.0,13.0,45,0.00,,,0.00,18,WeatherTracker,2013-01-14 00:39:00,
2013-01-13 16:44:00,45.1,25.6,30.19,NW,320,6.0,12.0,46,0.00,,,0.00,16,WeatherTracker,2013-01-14 00:44:00,
2013-01-13 16:49:00,44.8,25.8,30.19,NW,309,0.0,12.0,47,0.00,,,0.00,14,WeatherTracker,2013-01-14 00:49:00,
2013-01-13 16:54:00,44.6,26.1,30.19,NW,325,7.0,12.0,48,0.00,,,0.00,12,WeatherTracker,2013-01-14 00:54:00,
2013-01-13 16:59:00,44.3,26.4,30.19,NW,311,9.0,10.0,49,0.00,,,0.00,11,WeatherTracker,2013-01-14 00:59:00,
2013-01-13 17:04:00,44.1,26.7,30.19,NW,326,2.0,11.0,50,0.00,,,0.00,7,WeatherTracker,2013-01-14 01:04:00,
2013-01-13 17:09:00,43.8,26.9,30.19,NNW,333,1.0,11.0,51,0.00,,,0.00,5,WeatherTracker,2013-01-14 01:09:00,
2013-01-13 17:15:00,43.6,27.1,30.19,NW,323,0.0,12.0,52,0.00,,,0.00,0,WeatherTracker,2013-01-14 01:15:00,
2013-01-13 17:20:00,43.2,26.8,30.19,NW,319,12.0,12.0,52,0.00,,,0.00,0,WeatherTracker,2013-01-14 01:20:00,
2013-01-13 17:25:00,43.0,26.1,30.19,NNW,336,2.0,15.0,51,0.00,,,0.00,0,WeatherTracker,2013-01-14 01:25:00,
2013-01-13 17:30:00,42.9,26.0,30.19,NW,326,1.0,15.0,51,0.00,,,0.00,0,WeatherTracker,2013-01-14 01:30:00,
2013-01-13 17:35:00,42.6,26.2,30.19,NW,314,0.0,8.0,52,0.00,,,0.00,0,WeatherTracker,2013-01-14 01:35:00,
2013-01-13 17:40:00,42.3,25.5,30.19,NW,311,1.0,8.0,51,0.00,,,0.00,0,WeatherTracker,2013-01-14 01:40:00,
2013-01-13 17:45:00,42.0,25.7,30.19,WNW,297,0.0,9.0,52,0.00,,,0.00,0,WeatherTracker,2013-01-14 01:45:00,
2013-01-13 17:50:00,41.8,25.5,30.19,NW,317,0.0,10.0,52,0.00,,,0.00,0,WeatherTracker,2013-01-14 01:50:00,
2013-01-13 17:55:00,41.6,25.3,30.19,NW,310,5.0,10.0,52,0.00,,,0.00,0,WeatherTracker,2013-01-14 01:55:00,
2013-01-13 18:00:00,41.4,24.6,30.19,NNW,344,8.0,12.0,51,0.00,,,0.00,0,WeatherTracker,2013-01-14 02:00:00,
2013-01-13 18:05:00,41.4,24.6,30.19,West,280,6.0,14.0,51,0.00,,,0.00,0,WeatherTracker,2013-01-14 02:05:00,
2013-01-13 18:10:00,41.4,24.6,30.19,NW,306,0.0,14.0,51,0.00,,,0.00,0,WeatherTracker,2013-01-14 02:10:00,
2013-01-13 18:15:00,41.4,24.6,30.19,NNW,335,6.0,12.0,51,0.00,,,0.00,0,WeatherTracker,2013-01-14 02:15:00,
2013-01-13 18:20:00,41.3,24.6,30.20,WNW,287,0.0,10.0,51,0.00,,,0.00,0,WeatherTracker,2013-01-14 02:20:00,
2013-01-13 18:25:00,41.2,24.9,30.20,WNW,294,1.0,11.0,52,0.00,,,0.00,0,WeatherTracker,2013-01-14 02:25:00,
2013-01-13 18:30:00,41.0,24.7,30.20,NW,313,1.0,11.0,52,0.00,,,0.00,0,WeatherTracker,2013-01-14 02:30:00,
2013-01-13 18:36:00,40.8,24.6,30.20,WNW,297,1.0,9.0,52,0.00,,,0.00,0,WeatherTracker,2013-01-14 02:36:00,
2013-01-13 18:41:00,40.8,24.6,30.20,WNW,288,1.0,11.0,52,0.00,,,0.00,0,WeatherTracker,2013-01-14 02:41:00,
2013-01-13 18:45:00,40.7,24.5,30.20,NW,317,0.0,11.0,52,0.00,,,0.00,0,WeatherTracker,2013-01-14 02:45:00,
2013-01-13 18:50:00,40.7,24.5,30.20,WNW,290,8.0,11.0,52,0.00,,,0.00,0,WeatherTracker,2013-01-14 02:50:00,
2013-01-13 18:56:00,40.6,24.4,30.20,NW,313,1.0,9.0,52,0.00,,,0.00,0,WeatherTracker,2013-01-14 02:56:00,
2013-01-13 19:01:00,40.6,23.9,30.20,WNW,294,10.0,12.0,51,0.00,,,0.00,0,WeatherTracker,2013-01-14 03:01:00,
2013-01-13 19:06:00,40.7,24.0,30.20,WNW,294,8.0,14.0,51,0.00,,,0.00,0,WeatherTracker,2013-01-14 03:06:00,
2013-01-13 19:11:00,40.9,23.7,30.20,NW,317,7.0,15.0,50,0.00,,,0.00,0,WeatherTracker,2013-01-14 03:11:00,
2013-01-13 19:16:00,41.0,23.3,30.20,NW,317,6.0,15.0,49,0.00,,,0.00,0,WeatherTracker,2013-01-14 03:16:00,
2013-01-13 19:21:00,41.2,23.0,30.20,NW,316,4.0,19.0,48,0.00,,,0.00,0,WeatherTracker,2013-01-14 03:21:00,
2013-01-13 19:26:00,41.2,22.5,30.21,NNW,327,5.0,19.0,47,0.00,,,0.00,0,WeatherTracker,2013-01-14 03:26:00,
2013-01-13 19:31:00,41.3,22.6,30.21,WNW,292,2.0,14.0,47,0.00,,,0.00,0,WeatherTracker,2013-01-14 03:31:00,
2013-01-13 19:36:00,41.3,22.6,30.21,NW,321,10.0,15.0,47,0.00,,,0.00,0,WeatherTracker,2013-01-14 03:36:00,
2013-01-13 19:41:00,41.2,23.0,30.21,NW,323,0.0,15.0,48,0.00,,,0.00,0,WeatherTracker,2013-01-14 03:41:00,
2013-01-13 19:46:00,41.1,22.9,30.21,NW,319,1.0,12.0,48,0.00,,,0.00,0,WeatherTracker,2013-01-14 03:46:00,
2013-01-13 19:51:00,41.0,22.8,30.21,West,278,0.0,11.0,48,0.00,,,0.00,0,WeatherTracker,2013-01-14 03:51:00,
2013-01-13 19:56:00,40.8,23.1,30.21,NNW,329,7.0,11.0,49,0.00,,,0.00,0,WeatherTracker,2013-01-14 03:56:00,
2013-01-13 20:01:00,40.7,23.0,30.22,WNW,296,5.0,11.0,49,0.00,,,0.00,0,WeatherTracker,2013-01-14 04:01:00,
2013-01-13 20:06:00,40.6,23.4,30.21,NW,313,0.0,12.0,50,0.00,,,0.00,0,WeatherTracker,2013-01-14 04:06:00,
2013-01-13 20:11:00,40.4,23.2,30.22,WNW,300,5.0,12.0,50,0.00,,,0.00,0,WeatherTracker,2013-01-14 04:11:00,
2013-01-13 20:16:00,40.2,23.1,30.22,NW,317,0.0,13.0,50,0.00,,,0.00,0,WeatherTracker,2013-01-14 04:16:00,
2013-01-13 20:21:00,40.1,23.0,30.21,WNW,285,8.0,13.0,50,0.00,,,0.00,0,WeatherTracker,2013-01-14 04:21:00,
2013-01-13 20:26:00,39.9,22.8,30.21,WNW,296,4.0,13.0,50,0.00,,,0.00,0,WeatherTracker,2013-01-14 04:26:00,
2013-01-13 20:31:00,39.8,23.2,30.22,WNW,286,1.0,16.0,51,0.00,,,0.00,0,WeatherTracker,2013-01-14 04:31:00,
2013-01-13 20:36:00,39.6,23.0,30.22,WNW,294,8.0,16.0,51,0.00,,,0.00,0,WeatherTracker,2013-01-14 04:36:00,
2013-01-13 20:42:00,39.4,23.3,30.22,NNW,331,0.0,12.0,52,0.00,,,0.00,0,WeatherTracker,2013-01-14 04:42:00,
2013-01-13 20:47:00,39.3,23.2,30.22,NW,318,0.0,12.0,52,0.00,,,0.00,0,WeatherTracker,2013-01-14 04:47:00,
2013-01-13 20:52:00,39.1,23.0,30.22,NNW,328,0.0,11.0,52,0.00,,,0.00,0,WeatherTracker,2013-01-14 04:52:00,
2013-01-13 20:57:00,39.0,22.9,30.22,WNW,303,1.0,10.0,52,0.00,,,0.00,0,WeatherTracker,2013-01-14 04:57:00,
2013-01-13 21:00:00,38.9,22.8,30.22,NW,319,9.0,10.0,52,0.00,,,0.00,0,WeatherTracker,2013-01-14 05:00:00,
2013-01-13 21:01:00,38.9,22.8,30.22,WNW,296,1.0,10.0,52,0.00,,,0.00,0,WeatherTracker,2013-01-14 05:01:00,
2013-01-13 21:02:00,38.9,22.8,30.22,NW,306,1.0,10.0,52,0.00,,,0.00,0,WeatherTracker,2013-01-14 05:02:00,
2013-01-13 21:07:00,38.7,22.6,30.22,WNW,294,8.0,11.0,52,0.00,,,0.00,0,WeatherTracker,2013-01-14 05:07:00,
2013-01-13 21:12:00,38.5,22.4,30.22,WNW,282,4.0,11.0,52,0.00,,,0.00,0,WeatherTracker,2013-01-14 05:12:00,
2013-01-13 21:17:00,38.5,22.0,30.22,WNW,286,8.0,13.0,51,0.00,,,0.00,0,WeatherTracker,2013-01-14 05:17:00,
2013-01-13 21:22:00,38.5,22.0,30.22,West,278,0.0,15.0,51,0.00,,,0.00,0,WeatherTracker,2013-01-14 05:22:00,
2013-01-13 21:27:00,38.4,21.9,30.22,WNW,300,2.0,15.0,51,0.00,,,0.00,0,WeatherTracker,2013-01-14 05:27:00,
2013-01-13 21:32:00,38.5,22.0,30.22,NW,319,9.0,19.0,51,0.00,,,0.00,0,WeatherTracker,2013-01-14 05:32:00,
2013-01-13 21:37:00,38.5,21.5,30.22,WNW,288,0.0,19.0,50,0.00,,,0.00,0,WeatherTracker,2013-01-14 05:37:00,
2013-01-13 21:42:00,38.5,21.5,30.22,WNW,286,2.0,17.0,50,0.00,,,0.00,0,WeatherTracker,2013-01-14 05:42:00,
2013-01-13 21:47:00,38.5,22.0,30.22,NW,307,9.0,18.0,51,0.00,,,0.00,0,WeatherTracker,2013-01-14 05:47:00,
2013-01-13 21:52:00,38.4,21.9,30.22,WNW,298,3.0,18.0,51,0.00,,,0.00,0,WeatherTracker,2013-01-14 05:52:00,
2013-01-13 21:58:00,38.3,21.8,30.22,WNW,299,1.0,17.0,51,0.00,,,0.00,0,WeatherTracker,2013-01-14 05:58:00,
2013-01-13 22:03:00,38.2,21.7,30.22,NW,310,0.0,15.0,51,0.00,,,0.00,0,WeatherTracker,2013-01-14 06:03:00,
2013-01-13 22:08:00,38.2,21.7,30.22,NW,311,1.0,18.0,51,0.00,,,0.00,0,WeatherTracker,2013-01-14 06:08:00,
2013-01-13 22:13:00,38.1,22.0,30.22,WNW,301,9.0,18.0,52,0.00,,,0.00,0,WeatherTracker,2013-01-14 06:13:00,
2013-01-13 22:18:00,38.0,22.0,30.22,WNW,289,5.0,15.0,52,0.00,,,0.00,0,WeatherTracker,2013-01-14 06:18:00,
2013-01-13 22:23:00,37.9,21.9,30.23,NW,310,9.0,18.0,52,0.00,,,0.00,0,WeatherTracker,2013-01-14 06:23:00,
2013-01-13 22:28:00,37.8,22.2,30.22,WNW,289,6.0,18.0,53,0.00,,,0.00,0,WeatherTracker,2013-01-14 06:28:00,
2013-01-13 22:33:00,37.6,22.5,30.23,WSW,258,7.0,14.0,54,0.00,,,0.00,0,WeatherTracker,2013-01-14 06:33:00,
2013-01-13 22:38:00,37.5,22.4,30.23,NW,317,11.0,15.0,54,0.00,,,0.00,0,WeatherTracker,2013-01-14 06:38:00,
2013-01-13 22:43:00,37.5,21.9,30.23,NW,309,4.0,20.0,53,0.00,,,0.00,0,WeatherTracker,2013-01-14 06:43:00,
2013-01-13 22:48:00,37.7,22.1,30.23,NW,309,1.0,20.0,53,0.00,,,0.00,0,WeatherTracker,2013-01-14 06:48:00,
2013-01-13 22:53:00,37.7,21.7,30.23,WNW,298,14.0,20.0,52,0.00,,,0.00,0,WeatherTracker,2013-01-14 06:53:00,
2013-01-13 22:58:00,37.8,21.8,30.23,NW,315,1.0,18.0,52,0.00,,,0.00,0,WeatherTracker,2013-01-14 06:58:00,
2013-01-13 23:03:00,37.9,21.4,30.23,NNW,329,12.0,18.0,51,0.00,,,0.00,0,WeatherTracker,2013-01-14 07:03:00,
2013-01-13 23:08:00,38.0,21.5,30.23,WNW,300,7.0,16.0,51,0.00,,,0.00,0,WeatherTracker,2013-01-14 07:08:00,
2013-01-13 23:13:00,38.0,21.5,30.23,NW,320,8.0,17.0,51,0.00,,,0.00,0,WeatherTracker,2013-01-14 07:13:00,
2013-01-13 23:18:00,38.0,21.5,30.24,NW,313,0.0,17.0,51,0.00,,,0.00,0,WeatherTracker,2013-01-14 07:18:00,
2013-01-13 23:23:00,38.0,21.5,30.24,NW,321,6.0,18.0,51,0.00,,,0.00,0,WeatherTracker,2013-01-14 07:23:00,
2013-01-13 23:28:00,38.0,21.0,30.24,WNW,290,7.0,21.0,50,0.00,,,0.00,0,WeatherTracker,2013-01-14 07:28:00,
2013-01-13 23:34:00,38.0,20.6,30.24,West,269,13.0,21.0,49,0.00,,,0.00,0,WeatherTracker,2013-01-14 07:34:00,
2013-01-13 23:39:00,38.1,20.6,30.24,WNW,300,10.0,19.0,49,0.00,,,0.00,0,WeatherTracker,2013-01-14 07:39:00,
2013-01-13 23:44:00,38.2,20.3,30.25,WNW,294,0.0,20.0,48,0.00,,,0.00,0,WeatherTracker,2013-01-14 07:44:00,
2013-01-13 23:49:00,38.1,20.2,30.25,NW,310,14.0,20.0,48,0.00,,,0.00,0,WeatherTracker,2013-01-14 07:49:00,
2013-01-13 23:54:00,38.1,20.2,30.25,NW,314,9.0,19.0,48,0.00,,,0.00,0,WeatherTracker,2013-01-14 07:54:00,
2013-01-13 23:59:00,38.0,20.6,30.25,WNW,302,4.0,16.0,49,0.00,,,0.00,0,WeatherTracker,2013-01-14 07:59:00,